When you browse on this site, cookies collect data to enhance your experience and personalize the content and advertising you see.
Visit our Privacy Policy to learn more. By continuing to use the site, you agree to this use of cookies and data.
  • In Switzerland
  • List of Countries
  • For 7 days
  • Water Temperature
  • Satellite Maps
  • Weather Map
  • Weather Widgets
  • user-avatar
    Login

    Hourly Weather Herāt

    Today, 25 April, Thursday

    Time Temperature Precipitation Wind Pressure Humidity
    00:00 +6°C° 0 mm 7 mps 683 mmHg 59%
    01:00 +5°C° 0 mm 6 mps 683 mmHg 59%
    02:00 +5°C° 0 mm 6 mps 683 mmHg 60%
    03:00 +5°C° 0 mm 6 mps 683 mmHg 62%
    04:00 +5°C° 0 mm 6 mps 682 mmHg 64%
    05:00 +5°C° 0 mm 6 mps 683 mmHg 62%
    06:00 +5°C° 0 mm 6 mps 683 mmHg 59%
    07:00 +7°C° 0 mm 6 mps 683 mmHg 57%
    08:00 +9°C° 0 mm 5 mps 683 mmHg 51%
    09:00 +10°C° 0 mm 5 mps 684 mmHg 45%
    10:00 +13°C° 0 mm 5 mps 684 mmHg 38%
    11:00 +14°C° 0 mm 5 mps 684 mmHg 37%
    12:00 +15°C° 0 mm 5 mps 684 mmHg 35%
    13:00 +16°C° 0 mm 5 mps 684 mmHg 33%
    14:00 +16°C° 0 mm 5 mps 683 mmHg 34%
    15:00 +16°C° 0 mm 5 mps 683 mmHg 34%
    16:00 +16°C° 0 mm 5 mps 683 mmHg 35%
    17:00 +15°C° 0 mm 6 mps 683 mmHg 40%
    18:00 +14°C° 0 mm 6 mps 683 mmHg 46%
    19:00 +11°C° 0 mm 6 mps 682 mmHg 51%
    20:00 +11°C° 0 mm 6 mps 683 mmHg 52%
    21:00 +10°C° 0 mm 6 mps 683 mmHg 52%
    22:00 +10°C° 0 mm 6 mps 683 mmHg 53%
    23:00 +9°C° 0 mm 6 mps 683 mmHg 54%

    Tomorrow, 26 April, Friday

    Time Temperature Precipitation Wind Pressure Humidity
    00:00 +9°C° 0 mm 5 mps 683 mmHg 54%
    01:00 +9°C° 0 mm 5 mps 683 mmHg 55%
    02:00 +8°C° 0 mm 5 mps 683 mmHg 54%
    03:00 +8°C° 0 mm 5 mps 682 mmHg 54%
    04:00 +8°C° 0 mm 4 mps 682 mmHg 54%
    05:00 +8°C° 0 mm 5 mps 682 mmHg 51%
    06:00 +9°C° 0 mm 5 mps 683 mmHg 47%
    07:00 +9°C° 0 mm 5 mps 683 mmHg 44%
    08:00 +11°C° 0 mm 6 mps 683 mmHg 39%
    09:00 +14°C° 0 mm 6 mps 683 mmHg 34%
    10:00 +15°C° 0 mm 6 mps 683 mmHg 29%
    11:00 +16°C° 0 mm 6 mps 683 mmHg 28%
    12:00 +17°C° 0 mm 6 mps 683 mmHg 26%
    13:00 +19°C° 0 mm 6 mps 683 mmHg 25%
    14:00 +19°C° 0 mm 6 mps 683 mmHg 27%
    15:00 +19°C° 0 mm 6 mps 682 mmHg 28%
    16:00 +18°C° 0 mm 7 mps 682 mmHg 30%
    17:00 +17°C° 0 mm 7 mps 682 mmHg 34%
    18:00 +15°C° 0 mm 6 mps 682 mmHg 38%
    19:00 +14°C° 0 mm 6 mps 682 mmHg 42%
    20:00 +14°C° 0 mm 6 mps 682 mmHg 43%
    21:00 +13°C° 0 mm 6 mps 683 mmHg 44%
    22:00 +13°C° 0 mm 5 mps 683 mmHg 45%
    23:00 +12°C° 0 mm 5 mps 683 mmHg 45%

    Day after tomorrow, 27 April, Saturday

    Time Temperature Precipitation Wind Pressure Humidity
    00:00 +12°C° 0 mm 4 mps 683 mmHg 45%
    01:00 +11°C° 0 mm 3 mps 682 mmHg 45%
    02:00 +11°C° 0 mm 3 mps 682 mmHg 46%
    03:00 +10°C° 0 mm 3 mps 682 mmHg 46%
    04:00 +10°C° 0 mm 3 mps 682 mmHg 46%
    05:00 +11°C° 0 mm 3 mps 682 mmHg 43%
    06:00 +11°C° 0 mm 3 mps 683 mmHg 40%
    07:00 +12°C° 0 mm 3 mps 683 mmHg 38%
    08:00 +14°C° 0 mm 3 mps 683 mmHg 34%
    09:00 +16°C° 0 mm 3 mps 684 mmHg 31%
    10:00 +18°C° 0 mm 4 mps 684 mmHg 27%
    11:00 +19°C° 0 mm 4 mps 684 mmHg 26%
    12:00 +20°C° 0 mm 4 mps 684 mmHg 25%
    13:00 +21°C° 0 mm 4 mps 683 mmHg 24%
    14:00 +21°C° 0 mm 4 mps 683 mmHg 25%
    15:00 +21°C° 0 mm 4 mps 683 mmHg 25%
    16:00 +21°C° 0 mm 4 mps 683 mmHg 26%
    17:00 +20°C° 0 mm 4 mps 682 mmHg 31%
    18:00 +19°C° 0 mm 5 mps 682 mmHg 35%
    19:00 +17°C° 0 mm 5 mps 682 mmHg 40%
    20:00 +17°C° 0 mm 4 mps 682 mmHg 42%
    21:00 +15°C° 0 mm 4 mps 683 mmHg 44%
    22:00 +16°C° 0 mm 3 mps 683 mmHg 46%
    23:00 +14°C° 0 mm 3 mps 682 mmHg 47%

    28 April, Sunday

    Time Temperature Precipitation Wind Pressure Humidity
    00:00 +13°C° 0 mm 3 mps 682 mmHg 48%
    01:00 +14°C° 0 mm 2 mps 682 mmHg 50%
    02:00 +13°C° 0 mm 2 mps 682 mmHg 50%
    03:00 +13°C° 0 mm 2 mps 681 mmHg 50%
    04:00 +13°C° 0 mm 2 mps 681 mmHg 50%
    05:00 +14°C° 0 mm 2 mps 681 mmHg 46%
    06:00 +14°C° 0 mm 2 mps 682 mmHg 43%
    07:00 +15°C° 0 mm 2 mps 682 mmHg 39%
    08:00 +17°C° 0 mm 2 mps 682 mmHg 34%
    09:00 +20°C° 0 mm 1 mps 682 mmHg 28%
    10:00 +21°C° 0 mm 1 mps 683 mmHg 23%
    11:00 +21°C° 0 mm 2 mps 682 mmHg 22%
    12:00 +23°C° 0 mm 2 mps 682 mmHg 20%
    13:00 +24°C° 0 mm 2 mps 682 mmHg 18%
    14:00 +24°C° 0 mm 2 mps 681 mmHg 18%
    15:00 +25°C° 0 mm 2 mps 681 mmHg 18%
    16:00 +25°C° 0 mm 2 mps 680 mmHg 18%
    17:00 +24°C° 0 mm 2 mps 680 mmHg 22%
    18:00 +23°C° 0 mm 2 mps 680 mmHg 26%
    19:00 +20°C° 0 mm 2 mps 680 mmHg 30%
    20:00 +20°C° 0 mm 2 mps 680 mmHg 33%
    21:00 +19°C° 0 mm 2 mps 680 mmHg 35%
    22:00 +18°C° 0 mm 2 mps 680 mmHg 38%
    23:00 +18°C° 0 mm 2 mps 679 mmHg 37%

    29 April, Monday

    Time Temperature Precipitation Wind Pressure Humidity
    00:00 +18°C° 0 mm 2 mps 679 mmHg 36%
    01:00 +17°C° 0 mm 2 mps 678 mmHg 35%
    02:00 +17°C° 0 mm 2 mps 678 mmHg 34%
    03:00 +17°C° 0 mm 2 mps 678 mmHg 33%
    04:00 +18°C° 0 mm 1 mps 677 mmHg 32%
    05:00 +18°C° 0 mm 2 mps 678 mmHg 31%
    06:00 +18°C° 0 mm 2 mps 678 mmHg 30%
    07:00 +19°C° 0 mm 2 mps 679 mmHg 29%
    08:00 +21°C° 0 mm 1 mps 679 mmHg 27%
    09:00 +22°C° 0 mm 1 mps 679 mmHg 26%
    10:00 +22°C° 0 mm 1 mps 679 mmHg 24%
    11:00 +22°C° 0 mm 1 mps 679 mmHg 25%
    12:00 +22°C° 0 mm 1 mps 679 mmHg 26%
    13:00 +22°C° 0 mm 1 mps 679 mmHg 27%
    14:00 +22°C° 0 mm 1 mps 678 mmHg 29%
    15:00 +22°C° 0 mm 1 mps 678 mmHg 30%
    16:00 +22°C° 0 mm 1 mps 678 mmHg 31%
    17:00 +20°C° 0 mm 2 mps 678 mmHg 36%
    18:00 +19°C° 0 mm 2 mps 678 mmHg 41%
    19:00 +18°C° 0 mm 2 mps 678 mmHg 46%
    20:00 +18°C° 0 mm 2 mps 678 mmHg 50%
    21:00 +17°C° 0 mm 2 mps 678 mmHg 54%
    22:00 +16°C° 0 mm 2 mps 678 mmHg 58%
    23:00 +16°C° 0 mm 1 mps 678 mmHg 59%

    30 April, Tuesday

    Time Temperature Precipitation Wind Pressure Humidity
    00:00 +15°C° 0 mm 1 mps 678 mmHg 60%
    01:00 +15°C° 0 mm 1 mps 678 mmHg 62%
    02:00 +14°C° 0 mm 1 mps 678 mmHg 62%
    03:00 +14°C° 0 mm 1 mps 678 mmHg 61%
    04:00 +14°C° 0 mm 2 mps 678 mmHg 61%
    05:00 +15°C° 0 mm 2 mps 678 mmHg 57%
    06:00 +16°C° 0 mm 2 mps 679 mmHg 52%
    07:00 +17°C° 0 mm 2 mps 680 mmHg 48%
    08:00 +19°C° 0 mm 2 mps 680 mmHg 40%
    09:00 +20°C° 0 mm 2 mps 680 mmHg 32%
    10:00 +23°C° 0 mm 2 mps 680 mmHg 24%
    11:00 +24°C° 0 mm 3 mps 680 mmHg 22%
    12:00 +25°C° 0 mm 3 mps 680 mmHg 19%
    13:00 +26°C° 0 mm 4 mps 679 mmHg 17%
    14:00 +26°C° 0 mm 4 mps 679 mmHg 17%
    15:00 +26°C° 0 mm 5 mps 679 mmHg 18%
    16:00 +26°C° 0 mm 5 mps 679 mmHg 19%
    17:00 +25°C° 0 mm 5 mps 679 mmHg 23%
    18:00 +23°C° 0 mm 5 mps 679 mmHg 27%
    19:00 +21°C° 0 mm 5 mps 679 mmHg 31%
    20:00 +20°C° 0 mm 4 mps 679 mmHg 33%
    21:00 +20°C° 0 mm 3 mps 679 mmHg 34%
    22:00 +19°C° 0 mm 3 mps 679 mmHg 36%
    23:00 +18°C° 0 mm 3 mps 678 mmHg 36%
    Show more